Time,TemperatureF,DewpointF,PressureIn,WindDirection,WindDirectionDegrees,WindSpeedMPH,WindSpeedGustMPH,Humidity,HourlyPrecipIn,Conditions,Clouds,dailyrainin,SolarRadiationWatts/m^2,SoftwareType,DateUTC
2013-02-10 00:00:00,29.0,22.0,-100.00,SE,135,10.0,-999.0,75,-99.99,,,-99.99,0.000000,,2013-02-10 05:00:00,
2013-02-10 00:42:00,29.0,22.0,-100.00,SE,135,10.0,-999.0,75,-99.99,,,-99.99,0.000000,,2013-02-10 05:42:00,
2013-02-10 00:52:00,29.0,22.0,-100.00,SE,135,10.0,-999.0,75,-99.99,,,-99.99,0.000000,,2013-02-10 05:52:00,
2013-02-10 02:00:00,29.0,21.0,-100.00,SE,135,8.0,-999.0,71,-99.99,,,-99.99,0.000000,,2013-02-10 07:00:00,
2013-02-10 02:42:00,29.0,21.0,-100.00,SE,135,8.0,-999.0,71,-99.99,,,-99.99,0.000000,,2013-02-10 07:42:00,
2013-02-10 02:52:00,29.0,21.0,-100.00,SE,135,8.0,-999.0,71,-99.99,,,-99.99,0.000000,,2013-02-10 07:52:00,
2013-02-10 04:00:00,27.0,20.0,-100.00,SE,135,6.0,-999.0,75,-99.99,,,-99.99,0.000000,,2013-02-10 09:00:00,
2013-02-10 04:42:00,27.0,20.0,-100.00,SE,135,6.0,-999.0,75,-99.99,,,-99.99,0.000000,,2013-02-10 09:42:00,
2013-02-10 04:52:00,27.0,20.0,-100.00,SE,135,6.0,-999.0,75,-99.99,,,-99.99,0.000000,,2013-02-10 09:52:00,
2013-02-10 06:00:00,29.0,22.0,-100.00,SE,135,8.0,-999.0,74,-99.99,,,-99.99,0.000000,,2013-02-10 11:00:00,
2013-02-10 06:42:00,29.0,22.0,-100.00,SE,135,8.0,-999.0,74,-99.99,,,-99.99,0.000000,,2013-02-10 11:42:00,
2013-02-10 06:52:00,29.0,22.0,-100.00,SE,135,8.0,-999.0,74,-99.99,,,-99.99,0.000000,,2013-02-10 11:52:00,
2013-02-10 10:00:00,34.0,27.0,-100.00,SE,135,8.0,-999.0,75,-99.99,,,-99.99,46.400002,,2013-02-10 15:00:00,
2013-02-10 10:42:00,34.0,27.0,-100.00,SE,135,8.0,-999.0,75,-99.99,,,-99.99,46.400002,,2013-02-10 15:42:00,
2013-02-10 10:52:00,34.0,27.0,-100.00,SE,135,8.0,-999.0,75,-99.99,,,-99.99,46.400002,,2013-02-10 15:52:00,
2013-02-10 11:00:00,34.0,27.0,-100.00,ESE,112,9.0,-999.0,73,-99.99,,,-99.99,85.839996,,2013-02-10 16:00:00,
2013-02-10 11:42:00,34.0,27.0,-100.00,ESE,112,9.0,-999.0,73,-99.99,,,-99.99,85.839996,,2013-02-10 16:42:00,
2013-02-10 11:52:00,34.0,27.0,-100.00,ESE,112,9.0,-999.0,73,-99.99,,,-99.99,85.839996,,2013-02-10 16:52:00,
2013-02-10 12:00:00,36.0,27.0,-100.00,SE,135,10.0,-999.0,70,0.02,,,-99.99,153.119995,,2013-02-10 17:00:00,
2013-02-10 12:42:00,36.0,27.0,-100.00,SE,135,10.0,-999.0,70,0.02,,,-99.99,153.119995,,2013-02-10 17:42:00,
2013-02-10 12:52:00,36.0,27.0,-100.00,SE,135,10.0,-999.0,70,0.02,,,-99.99,153.119995,,2013-02-10 17:52:00,
2013-02-10 13:00:00,38.0,29.0,-100.00,ESE,112,9.0,-999.0,69,0.05,,,-99.99,142.679993,,2013-02-10 18:00:00,
2013-02-10 13:42:00,38.0,29.0,-100.00,ESE,112,9.0,-999.0,69,0.05,,,-99.99,142.679993,,2013-02-10 18:42:00,
2013-02-10 13:52:00,38.0,29.0,-100.00,ESE,112,9.0,-999.0,69,0.05,,,-99.99,142.679993,,2013-02-10 18:52:00,
2013-02-10 14:00:00,39.0,31.0,-100.00,SE,135,10.0,-999.0,71,0.01,,,-99.99,98.599998,,2013-02-10 19:00:00,
2013-02-10 14:43:00,39.0,31.0,-100.00,SE,135,10.0,-999.0,71,0.01,,,-99.99,98.599998,,2013-02-10 19:43:00,
2013-02-10 14:52:00,39.0,31.0,-100.00,SE,135,10.0,-999.0,71,0.01,,,-99.99,98.599998,,2013-02-10 19:52:00,
2013-02-10 15:00:00,41.0,32.0,-100.00,SE,135,10.0,-999.0,69,-99.99,,,-99.99,71.919998,,2013-02-10 20:00:00,
2013-02-10 15:42:00,41.0,32.0,-100.00,SE,135,10.0,-999.0,69,-99.99,,,-99.99,71.919998,,2013-02-10 20:42:00,
2013-02-10 15:52:00,41.0,32.0,-100.00,SE,135,10.0,-999.0,69,-99.99,,,-99.99,71.919998,,2013-02-10 20:52:00,
2013-02-10 16:00:00,41.0,34.0,-100.00,SE,135,12.0,-999.0,76,0.03,,,-99.99,48.720001,,2013-02-10 21:00:00,
2013-02-10 16:32:00,41.0,34.0,-100.00,SE,135,12.0,-999.0,76,0.03,,,-99.99,48.720001,,2013-02-10 21:32:00,
2013-02-10 16:42:00,41.0,34.0,-100.00,SE,135,12.0,-999.0,76,0.03,,,-99.99,48.720001,,2013-02-10 21:42:00,
2013-02-10 16:52:00,41.0,34.0,-100.00,SE,135,12.0,-999.0,76,0.03,,,-99.99,48.720001,,2013-02-10 21:52:00,
2013-02-10 18:00:00,41.0,37.0,-100.00,SE,135,14.0,-999.0,87,-99.99,,,-99.99,22.040001,,2013-02-10 23:00:00,
2013-02-10 18:42:00,41.0,37.0,-100.00,SE,135,14.0,-999.0,87,-99.99,,,-99.99,22.040001,,2013-02-10 23:42:00,
2013-02-10 18:52:00,41.0,37.0,-100.00,SE,135,14.0,-999.0,87,-99.99,,,-99.99,22.040001,,2013-02-10 23:52:00,
2013-02-10 19:00:00,40.0,39.0,-100.00,SE,135,13.0,-999.0,95,-99.99,,,-99.99,1.160000,,2013-02-11 00:00:00,
2013-02-10 19:42:00,40.0,39.0,-100.00,SE,135,13.0,-999.0,95,-99.99,,,-99.99,1.160000,,2013-02-11 00:42:00,
2013-02-10 19:52:00,40.0,39.0,-100.00,SE,135,13.0,-999.0,95,-99.99,,,-99.99,1.160000,,2013-02-11 00:52:00,
2013-02-10 21:00:00,40.0,40.0,-100.00,SE,135,11.0,-999.0,100,-99.99,,,-99.99,0.000000,,2013-02-11 02:00:00,
2013-02-10 21:42:00,40.0,40.0,-100.00,SE,135,11.0,-999.0,100,-99.99,,,-99.99,0.000000,,2013-02-11 02:42:00,
2013-02-10 21:52:00,40.0,40.0,-100.00,SE,135,11.0,-999.0,100,-99.99,,,-99.99,0.000000,,2013-02-11 02:52:00,
2013-02-10 22:00:00,41.0,41.0,-100.00,SE,135,10.0,-999.0,101,-99.99,,,-99.99,0.000000,,2013-02-11 03:00:00,
2013-02-10 22:42:00,41.0,41.0,-100.00,SE,135,10.0,-999.0,101,-99.99,,,-99.99,0.000000,,2013-02-11 03:42:00,
2013-02-10 22:52:00,41.0,41.0,-100.00,SE,135,10.0,-999.0,101,-99.99,,,-99.99,0.000000,,2013-02-11 03:52:00,
2013-02-10 23:00:00,43.0,43.0,-100.00,SSE,157,9.0,-999.0,100,-99.99,,,-99.99,0.000000,,2013-02-11 04:00:00,
2013-02-10 23:42:00,43.0,43.0,-100.00,SSE,157,9.0,-999.0,100,-99.99,,,-99.99,0.000000,,2013-02-11 04:42:00,
2013-02-10 23:52:00,43.0,43.0,-100.00,SSE,157,9.0,-999.0,100,-99.99,,,-99.99,0.000000,,2013-02-11 04:52:00,